DELTA 1 DEB, 7174

Orbit data source: Space-Track

DELTA 1 DEB, 7174 is space debris in SSO originally from a launch on Tue, 06 Nov 1973 UTC launched from the Air Force Western Test Range (AFWTR). Debris objects in space refer to the collection of defunct objects orbiting the Earth. Examples of debris include non-operational satellites, rocket bodies, and fragments generated from explosions, collisions, or faulty payload assembly.

Loading next visibility...
Identifier
7174, 1973-086EL
Orbit
SSO
Country
Flag of USUS
Related business
Manufacturer
Unknown
Mission
Spacecraft
Bus & Motor
Unknown
Mass
Unknown
Launch date (UTC)
1973-11-06 (52 years ago)
Launch vehicle
Unknown
Launch site
Air Force Western Test Range (AFWTR)
Object type
Payload
Rocket body
Debris
Shape & HBR
Unknown shape, 0.1 m
Radar Cross Section
Small (<0.1 m²)

Expand to show TLE details & history
Last TLE update: 22 hours ago

TLE from 22 hours ago
0 DELTA 1 DEB
1 07174U 73086EL  26033.11499723 -.00000135  00000-0 -92391-3 0  9991
2 07174 102.0924  93.2824 0292190  34.9998 355.4625 12.08969513315106
Epoch: 2026-02-02T02:45Z
TLE epoch observation values (Epoch: 2026-02-02T02:45:35.760Z)
Latitude
29.49915°
Longitude
-87.3586°
Altitude
1,410.716 km
Speed
7.261 km/s
True Right ascension
05h 45m 25s
True Declination
29° 21' 52"
Sunlit
Object was in full shadow at epoch
Visualization orbit readout
Latitude
Unknown
Longitude
Unknown
Altitude
Unknown
Speed
Unknown
Apparent Right ascension
Unknown
Apparent Declination
Unknown
Sunlit
N/A
Visualization observer readout
Local Sidereal Time
02:09:42
Azimuth
Unknown
Elevation
Unknown
Doppler factor
Unknown
Orbital elements
Apogee altitude
1,872.808 km
Perigee altitude
1,404.328 km
Semi-major axis
8,016.705 km
Eccentricity
0.02922
Inclination
102.0924°
RAAN
93.2824°
Arg. of periapsis
34.9998°
True anomaly
355.18762°
Mean anomaly
355.4625°
Eccentric anomaly
355.32608°
Mean motion
3.02377 °/min
Orbital period
119.06 mins
BSTAR
-0.00092391
Loading maneuver chart data...
Computing Atmospheric mass density...
Loading historical data...
Loading historical data...
Loading historical data...
Loading historical data...
Loading historical data...
Loading historical data...
Loading historical data...

Documentation

Showing up to 5 results
|